Tracking 17884 objects as of 3-December-2016
HD Live streaming from Space Station
objects crossing your sky now

COSMOS 2315

Track COSMOS 2315 now!
10-day predictions
COSMOS 2315 is classified as:


NORAD ID: 23603
Int'l Code: 1995-032A
Perigee: 973.6 km
Apogee: 1,019.5 km
Inclination: 82.9 °
Period: 104.9 minutes
Semi major axis: 7367 km
RCS: 2.3448 m2 (large)
Launch date: July 5, 1995
Source: Commonwealth of Independent States (former USSR) (CIS)
Launch site: PLESETSK MISSILE AND SPACE COMPLEX (PKMTR)
Your satellite tracking list
Your tracking list is empty





NASA's NSSDC Master Catalog

Two Line Element Set (TLE):
1 23603U 95032A   16337.92548313 +.00000039 +00000-0 +26245-4 0  9993
2 23603 082.9027 316.8120 0031146 168.7707 247.4157 13.72825566072741
Source of the keplerian elements: AFSPC